Regional Weather Roundup
Issued by NWS

Home | Current Version | Previous Version | Graphics & Text | Print | Product List | Glossary On
Versions: 1 2 3 4 5 6 7 8 9 10 11 12 13 14 15 16 17 18 19 20 21 22 23 24 25 26 27 28 29 30 31 32 33 34 35 36 37 38 39 40 41 42 43 44 45 46 47 48 49 50
000
ASUS43 KTOP 122259
RWRKS

WEATHER ROUNDUP FOR KANSAS
NATIONAL WEATHER SERVICE GOODLAND KS
500 PM CST FRI FEB 12 2016

NOTE:  "FAIR" INDICATES FEW OR NO CLOUDS BELOW 12,000 FEET WITH NO
SIGNIFICANT WEATHER AND/OR OBSTRUCTIONS TO VISIBILITY.

KSZ001>006-013>018-027>032-041>047-130000-
NORTHWEST KANSAS

CITY           SKY/WX    TMP DP  RH WIND       PRES   REMARKS
GOODLAND       CLOUDY    33  30  88 E15       30.35R WCI  23
HAYS           CLOUDY    37  21  52 E10       30.44S WCI  30
HILL CITY      CLOUDY    37  28  70 E9        30.44R
RUSSELL        CLOUDY    36  27  69 E10       30.44R WCI  28
$$

KSZ061>065-074>080-084>089-130000-
SOUTHWEST KANSAS

CITY           SKY/WX    TMP DP  RH WIND       PRES   REMARKS
DODGE CITY     CLOUDY    39  28  64 NE14      30.39R WCI  31
ELKHART          N/A     61  29  29 SE13        N/A
GARDEN CITY    CLOUDY    39  30  70 E22       30.35R WCI  29
GREAT BEND     CLOUDY    36  21  55 NE10      30.46R WCI  28
LIBERAL        SUNNY     57  30  35 SE14      30.32S
$$

KSZ066>073-081>083-090>101-130000-
SOUTHEAST KANSAS

CITY           SKY/WX    TMP DP  RH WIND       PRES   REMARKS
CHANUTE        CLEAR     42  24  49 N14       30.44R
COFFEYVILLE    CLOUDY    45  26  47 N13       30.43R
HUTCHINSON     PTSUNNY   37  25  61 NE9       30.47R
MEDICINE LODGE   N/A     42  28  57 NE13      30.41S
NEWTON         PTSUNNY   36  21  55 NE15      30.47R WCI  26
PARSONS        CLOUDY    44  26  49 N10       30.43R
WICHITA INTL   CLOUDY    41  25  53 N15       30.46R
WICHITA JABRA  CLOUDY    38  24  57 N10       30.46R WCI  31
WINFIELD       SUNNY     46  26  45 N12       30.44R
$$

KSZ007>012-019>026-033>040-048>060-102>105-130000-
NORTHEAST KANSAS

CITY           SKY/WX    TMP DP  RH WIND       PRES   REMARKS
CONCORDIA      CLOUDY    29  20  69 N12       30.49R WCI  19
EMPORIA        CLEAR     36  21  54 N14       30.45R WCI  27
LAWRENCE       CLEAR     34  13  41 N17       30.48R WCI  23
MANHATTAN      CLEAR     33  19  56 N8        30.50R
OLATHE IND     CLEAR     34  14  43 N14       30.46R WCI  25
OLATHE EXE     CLEAR     34  12  40 N15       30.45R WCI  24
SALINA         CLOUDY    37  22  54 N10       30.49R WCI  30
TOPEKA BILLARD CLEAR     35  14  42 N14       30.49R WCI  26
TOPEKA FORBES  CLEAR     36  15  42 N13       30.47R WCI  27
$$



USA.gov is the U.S. government's official web portal to all federal, state and local government web resources and services.